When you browse on this site, cookies collect data to enhance your experience and personalize the content and advertising you see.
Visit our Privacy Policy to learn more. By continuing to use the site, you agree to this use of cookies and data.
  • en Suisse
  • Liste des pays
  • À 7 jours
  • Température de l'eau
  • Carte satellitaire
  • Carte météo
  • Widgets météo
  • user-avatar
    Se connecter

    Météo par heure à Krzyz

    Ce jour, 22 Juillet, Lundi

    Heure Température Précipitation Vent Pression Humidité
    00:00 +18°C° 0 mm 2 m/s 750 mmHg 79%
    01:00 +18°C° 0 mm 2 m/s 750 mmHg 82%
    02:00 +17°C° 0 mm 2 m/s 750 mmHg 84%
    03:00 +17°C° 0 mm 2 m/s 750 mmHg 87%
    04:00 +18°C° 0 mm 1 m/s 750 mmHg 89%
    05:00 +19°C° 0 mm 1 m/s 750 mmHg 84%
    06:00 +20°C° 0 mm 1 m/s 751 mmHg 80%
    07:00 +21°C° 0 mm 1 m/s 751 mmHg 75%
    08:00 +21°C° 0.1 mm 2 m/s 751 mmHg 69%
    09:00 +24°C° 0.1 mm 2 m/s 751 mmHg 62%
    10:00 +25°C° 0.1 mm 3 m/s 751 mmHg 56%
    11:00 +25°C° 0.4 mm 3 m/s 751 mmHg 57%
    12:00 +25°C° 0.4 mm 3 m/s 751 mmHg 57%
    13:00 +25°C° 0.4 mm 4 m/s 750 mmHg 58%
    14:00 +25°C° 0.2 mm 4 m/s 750 mmHg 57%
    15:00 +26°C° 0.2 mm 4 m/s 750 mmHg 57%
    16:00 +26°C° 0.2 mm 4 m/s 750 mmHg 56%
    17:00 +25°C° 0 mm 3 m/s 750 mmHg 60%
    18:00 +24°C° 0 mm 3 m/s 750 mmHg 65%
    19:00 +23°C° 0 mm 2 m/s 750 mmHg 69%
    20:00 +21°C° 0 mm 2 m/s 750 mmHg 70%
    21:00 +20°C° 0 mm 2 m/s 750 mmHg 71%
    22:00 +19°C° 0 mm 2 m/s 750 mmHg 72%
    23:00 +20°C° 0 mm 1 m/s 750 mmHg 71%

    Demain, 23 Juillet, Mardi

    Heure Température Précipitation Vent Pression Humidité
    00:00 +20°C° 0 mm 1 m/s 750 mmHg 69%
    01:00 +20°C° 0 mm 1 m/s 750 mmHg 68%
    02:00 +19°C° 0 mm 1 m/s 750 mmHg 71%
    03:00 +18°C° 0 mm 2 m/s 750 mmHg 75%
    04:00 +18°C° 0 mm 2 m/s 750 mmHg 78%
    05:00 +17°C° 0.1 mm 2 m/s 750 mmHg 81%
    06:00 +17°C° 0.1 mm 2 m/s 750 mmHg 84%
    07:00 +16°C° 0.1 mm 2 m/s 750 mmHg 86%
    08:00 +17°C° 0 mm 2 m/s 750 mmHg 86%
    09:00 +18°C° 0 mm 1 m/s 750 mmHg 85%
    10:00 +18°C° 0 mm 1 m/s 750 mmHg 85%
    11:00 +19°C° 0 mm 1 m/s 750 mmHg 82%
    12:00 +20°C° 0 mm 1 m/s 750 mmHg 79%
    13:00 +19°C° 0 mm 0 m/s 749 mmHg 76%
    14:00 +21°C° 0 mm 1 m/s 749 mmHg 76%
    15:00 +21°C° 0 mm 1 m/s 749 mmHg 76%
    16:00 +22°C° 0 mm 1 m/s 749 mmHg 75%
    17:00 +22°C° 0 mm 1 m/s 749 mmHg 78%
    18:00 +21°C° 0 mm 1 m/s 749 mmHg 80%
    19:00 +21°C° 0 mm 1 m/s 748 mmHg 83%
    20:00 +20°C° 0 mm 1 m/s 749 mmHg 84%
    21:00 +20°C° 0 mm 1 m/s 749 mmHg 86%
    22:00 +19°C° 0 mm 1 m/s 749 mmHg 87%
    23:00 +19°C° 0 mm 1 m/s 749 mmHg 86%

    Après-demain, 24 Juillet, Mercredi

    Heure Température Précipitation Vent Pression Humidité
    00:00 +20°C° 0 mm 1 m/s 749 mmHg 85%
    01:00 +20°C° 0 mm 1 m/s 749 mmHg 84%
    02:00 +20°C° 0 mm 1 m/s 748 mmHg 87%
    03:00 +19°C° 0 mm 1 m/s 748 mmHg 89%
    04:00 +19°C° 0 mm 1 m/s 748 mmHg 91%
    05:00 +20°C° 0 mm 1 m/s 748 mmHg 87%
    06:00 +20°C° 0 mm 2 m/s 748 mmHg 83%
    07:00 +21°C° 0 mm 2 m/s 748 mmHg 79%
    08:00 +24°C° 0 mm 2 m/s 748 mmHg 73%
    09:00 +25°C° 0 mm 3 m/s 748 mmHg 67%
    10:00 +26°C° 0 mm 3 m/s 748 mmHg 60%
    11:00 +27°C° 0 mm 3 m/s 748 mmHg 58%
    12:00 +27°C° 0 mm 3 m/s 748 mmHg 56%
    13:00 +28°C° 0 mm 3 m/s 748 mmHg 54%
    14:00 +28°C° 0 mm 3 m/s 748 mmHg 54%
    15:00 +28°C° 0 mm 3 m/s 748 mmHg 54%
    16:00 +28°C° 0 mm 3 m/s 748 mmHg 54%
    17:00 +27°C° 0 mm 3 m/s 748 mmHg 58%
    18:00 +26°C° 0 mm 2 m/s 748 mmHg 63%
    19:00 +25°C° 0 mm 2 m/s 748 mmHg 68%
    20:00 +24°C° 0 mm 1 m/s 748 mmHg 70%
    21:00 +23°C° 0 mm 1 m/s 748 mmHg 72%
    22:00 +22°C° 0 mm 1 m/s 749 mmHg 74%
    23:00 +21°C° 0 mm 1 m/s 749 mmHg 76%

    25 Juillet, Jeudi

    Heure Température Précipitation Vent Pression Humidité
    00:00 +21°C° 0 mm 1 m/s 749 mmHg 77%
    01:00 +21°C° 0 mm 1 m/s 749 mmHg 79%
    02:00 +18°C° 0 mm 0 m/s 749 mmHg 80%
    03:00 +18°C° 0 mm 0 m/s 749 mmHg 82%
    04:00 +18°C° 0 mm 0 m/s 749 mmHg 84%
    05:00 +19°C° 0 mm 0 m/s 749 mmHg 78%
    06:00 +21°C° 0 mm 0 m/s 749 mmHg 73%
    07:00 +22°C° 0 mm 0 m/s 749 mmHg 68%
    08:00 +25°C° 0 mm 1 m/s 749 mmHg 64%
    09:00 +26°C° 0 mm 1 m/s 749 mmHg 60%
    10:00 +27°C° 0 mm 2 m/s 749 mmHg 56%
    11:00 +28°C° 0 mm 2 m/s 749 mmHg 54%
    12:00 +28°C° 0 mm 2 m/s 749 mmHg 51%
    13:00 +29°C° 0 mm 2 m/s 749 mmHg 49%
    14:00 +29°C° 0 mm 2 m/s 749 mmHg 48%
    15:00 +29°C° 0 mm 2 m/s 748 mmHg 48%
    16:00 +29°C° 0 mm 3 m/s 748 mmHg 47%
    17:00 +28°C° 0 mm 3 m/s 748 mmHg 52%
    18:00 +27°C° 0 mm 2 m/s 748 mmHg 57%
    19:00 +26°C° 0 mm 2 m/s 748 mmHg 62%
    20:00 +25°C° 0 mm 3 m/s 748 mmHg 64%
    21:00 +24°C° 0 mm 3 m/s 749 mmHg 66%
    22:00 +22°C° 0 mm 3 m/s 749 mmHg 68%
    23:00 +21°C° 0 mm 3 m/s 749 mmHg 71%

    26 Juillet, Vendredi

    Heure Température Précipitation Vent Pression Humidité
    00:00 +21°C° 0 mm 3 m/s 749 mmHg 74%
    01:00 +20°C° 0 mm 3 m/s 749 mmHg 77%
    02:00 +19°C° 0 mm 3 m/s 748 mmHg 78%
    03:00 +19°C° 0 mm 3 m/s 748 mmHg 80%
    04:00 +18°C° 0 mm 3 m/s 748 mmHg 81%
    05:00 +20°C° 0 mm 4 m/s 748 mmHg 77%
    06:00 +21°C° 0 mm 4 m/s 748 mmHg 72%
    07:00 +23°C° 0 mm 5 m/s 748 mmHg 68%
    08:00 +25°C° 0 mm 5 m/s 748 mmHg 62%
    09:00 +26°C° 0 mm 5 m/s 748 mmHg 55%
    10:00 +28°C° 0 mm 6 m/s 748 mmHg 49%
    11:00 +29°C° 0 mm 6 m/s 747 mmHg 49%
    12:00 +29°C° 0 mm 6 m/s 747 mmHg 48%
    13:00 +30°C° 0 mm 6 m/s 747 mmHg 48%
    14:00 +30°C° 0 mm 6 m/s 746 mmHg 48%
    15:00 +30°C° 0 mm 6 m/s 746 mmHg 49%
    16:00 +30°C° 0 mm 6 m/s 746 mmHg 49%
    17:00 +29°C° 0 mm 5 m/s 745 mmHg 54%
    18:00 +28°C° 0 mm 5 m/s 745 mmHg 59%
    19:00 +27°C° 0 mm 4 m/s 745 mmHg 64%
    20:00 +26°C° 0 mm 4 m/s 745 mmHg 67%
    21:00 +25°C° 0 mm 4 m/s 745 mmHg 70%
    22:00 +23°C° 0 mm 4 m/s 745 mmHg 73%
    23:00 +22°C° 0 mm 4 m/s 745 mmHg 76%

    27 Juillet, Samedi

    Heure Température Précipitation Vent Pression Humidité
    00:00 +22°C° 0 mm 4 m/s 745 mmHg 78%
    01:00 +21°C° 0 mm 4 m/s 745 mmHg 80%
    02:00 +21°C° 0 mm 4 m/s 745 mmHg 82%
    03:00 +20°C° 0 mm 4 m/s 744 mmHg 83%
    04:00 +20°C° 0 mm 5 m/s 744 mmHg 85%
    05:00 +21°C° 0 mm 5 m/s 744 mmHg 80%
    06:00 +22°C° 0 mm 5 m/s 744 mmHg 74%
    07:00 +23°C° 0 mm 6 m/s 744 mmHg 69%
    08:00 +26°C° 0 mm 6 m/s 744 mmHg 63%
    09:00 +28°C° 0 mm 6 m/s 744 mmHg 57%
    10:00 +29°C° 0 mm 5 m/s 744 mmHg 52%
    11:00 +30°C° 0 mm 6 m/s 743 mmHg 49%
    12:00 +32°C° 0 mm 6 m/s 743 mmHg 46%
    13:00 +33°C° 0 mm 6 m/s 742 mmHg 43%
    14:00 +33°C° 0 mm 6 m/s 742 mmHg 44%
    15:00 +32°C° 0 mm 6 m/s 742 mmHg 45%
    16:00 +32°C° 0 mm 6 m/s 741 mmHg 45%
    17:00 +30°C° 0 mm 6 m/s 741 mmHg 50%
    18:00 +29°C° 0 mm 5 m/s 741 mmHg 55%
    19:00 +28°C° 0 mm 5 m/s 741 mmHg 60%
    20:00 +26°C° 0.4 mm 5 m/s 741 mmHg 65%
    21:00 +25°C° 0.4 mm 5 m/s 741 mmHg 70%
    22:00 +23°C° 0.4 mm 4 m/s 741 mmHg 76%
    23:00 +22°C° 0.3 mm 4 m/s 741 mmHg 79%
    Voir plus